Weather History for Selawik, AK

Change the Weather History Date:

Saturday, January 19, 2013

  Actual Average Record
Temperature  
Mean Temperature -13 °F -  
Max Temperature 8 °F 1 °F 32 °F (2001)
Min Temperature -34 °F -7 °F -43 °F (1999)
Degree Days  
Heating Degree Days 78    
Moisture  
Dew Point -9 °F    
Average Humidity 66    
Maximum Humidity 100    
Minimum Humidity 30    
Precipitation  
Precipitation 0.00 in - - ()
Sea Level Pressure  
Sea Level Pressure 30.38 in    
Wind  
Wind Speed 13 mph (ENE)    
Max Wind Speed 29 mph    
Max Gust Speed 34 mph    
Visibility 9 miles    
Events      
Averages and records for this station are not official NWS values.
T = Trace of Precipitation, MM = Missing Value Source: NWS Daily Summary

Daily Weather History Graph

Daily Weather History Graph

Search for Another Location

Airport:

Trip Planner

Search our weather history database for the weather conditions in past years. The results will help you decide how hot, cold, wet, or windy it might be!

Date:

Astronomy

Jan. 19, 2013 Rise Set
Actual Time 11:27 AM AKST 4:15 PM AKST
Civil Twilight 10:09 AM AKST 5:33 PM AKST
Nautical Twilight 8:58 AM AKST 6:43 PM AKST
Astronomical Twilight 7:55 AM AKST 7:47 PM AKST
Moon 11:26 AM AKST (1/19) 4:28 AM AKST (1/19)
Length of Visible Light 7h 23m
Length of Day
4h 48m
First Quarter, 58% of the Moon is Illuminated
Jan 19
First Quarter
Jan 26
Full
Feb 3
Last Quarter
Feb 9
New
Feb 17
First Quarter

Hourly Weather History & Observations

Time (AKST) Temp. Windchill Dew Point Humidity Pressure Visibility Wind Dir Wind Speed Gust Speed Precip Events Conditions
12:16 AM -32.8 °F - - N/A% 30.60 in 10.0 mi Calm Calm - N/A   Clear
12:36 AM -32.8 °F - - N/A% 30.60 in 10.0 mi Calm Calm - N/A   Clear
12:56 AM -32.8 °F - - N/A% 30.60 in 10.0 mi Calm Calm - N/A   Clear
1:16 AM -32.8 °F - - N/A% 30.60 in 10.0 mi Calm Calm - N/A   Clear
1:36 AM -34.6 °F - - N/A% 30.59 in 9.0 mi Calm Calm - N/A   Clear
1:56 AM -32.8 °F - - N/A% 30.60 in 10.0 mi Calm Calm - N/A   Clear
2:16 AM -32.8 °F -48.2 °F - N/A% 30.59 in 10.0 mi North 4.6 mph - N/A   Clear
2:36 AM -32.8 °F -48.2 °F - N/A% 30.58 in 10.0 mi North 4.6 mph - N/A   Clear
2:56 AM -32.8 °F -50.5 °F - N/A% 30.57 in 10.0 mi NNE 5.8 mph - N/A   Clear
3:16 AM -32.8 °F -48.2 °F - N/A% 30.56 in 10.0 mi North 4.6 mph - N/A   Clear
3:36 AM -32.8 °F - - N/A% 30.55 in 10.0 mi Calm Calm - N/A   Clear
3:56 AM -32.8 °F - - N/A% 30.55 in 10.0 mi Calm Calm - N/A   Clear
4:16 AM -29.2 °F -46.2 °F - N/A% 30.54 in 10.0 mi East 5.8 mph - N/A   Clear
4:36 AM -27.4 °F -45.9 °F - N/A% 30.53 in 10.0 mi East 6.9 mph - N/A   Clear
4:56 AM -23.8 °F -43.2 °F -27.4 °F 83% 30.52 in 10.0 mi East 8.1 mph - N/A   Clear
5:16 AM -23.8 °F -46.9 °F -27.4 °F 83% 30.51 in 10.0 mi East 11.5 mph - N/A   Clear
5:36 AM -22.0 °F -46.6 °F - N/A% 30.51 in 10.0 mi ENE 13.8 mph - N/A   Clear
5:56 AM -20.2 °F -35.5 °F -25.6 °F 76% 30.50 in 10.0 mi ENE 5.8 mph - N/A   Clear
6:16 AM -18.4 °F -35.1 °F -20.2 °F 91% 30.49 in 10.0 mi ENE 6.9 mph - N/A   Clear
6:36 AM -18.4 °F -40.2 °F - N/A% 30.48 in 10.0 mi ENE 11.5 mph - N/A   Clear
6:56 AM -16.6 °F -39.8 °F -22.0 °F 76% 30.47 in 10.0 mi NE 13.8 mph - N/A   Clear
7:16 AM -9.4 °F -32.8 °F -27.4 °F 41% 30.46 in 10.0 mi NE 17.3 mph - N/A   Clear
7:36 AM -7.6 °F -29.1 °F - N/A% 30.45 in 10.0 mi NE 15.0 mph - N/A   Clear
7:56 AM -5.8 °F -28.8 °F -23.8 °F 42% 30.44 in 10.0 mi NE 18.4 mph - N/A   Clear
8:16 AM -4.0 °F -28.6 °F -23.8 °F 38% 30.44 in 10.0 mi NE 23.0 mph - N/A   Clear
8:36 AM -4.0 °F -28.1 °F -23.8 °F 38% 30.44 in 10.0 mi NE 21.9 mph - N/A   Clear
8:56 AM -5.8 °F -29.4 °F -20.2 °F 50% 30.43 in 10.0 mi ENE 19.6 mph - N/A   Clear
9:16 AM -4.0 °F -28.1 °F -14.8 °F 60% 30.42 in 10.0 mi ENE 21.9 mph 26.5 mph N/A   Clear
9:36 AM -0.4 °F -23.3 °F -7.6 °F 72% 30.42 in 10.0 mi ENE 21.9 mph 27.6 mph N/A   Clear
9:56 AM -0.4 °F -24.7 °F -0.4 °F 100% 30.42 in 7.0 mi ENE 25.3 mph - N/A   Clear
10:16 AM 1.4 °F -22.7 °F -23.8 °F 30% 30.41 in 5.0 mi ENE 26.5 mph - N/A   Clear
10:36 AM 1.4 °F -23.2 °F -13.0 °F 51% 30.41 in 4.0 mi ENE 27.6 mph - N/A   Clear
10:56 AM 1.4 °F -21.9 °F -16.6 °F 43% 30.41 in 3.0 mi ENE 24.2 mph - N/A   Clear
11:16 AM 1.4 °F -22.7 °F -16.6 °F 43% 30.41 in 3.0 mi ENE 26.5 mph 34.5 mph N/A   Clear
11:36 AM 1.4 °F -22.7 °F -14.8 °F 47% 30.40 in 4.0 mi ENE 26.5 mph - N/A   Clear
11:56 AM 1.4 °F -22.7 °F -13.0 °F 51% 30.40 in 3.0 mi ENE 26.5 mph - N/A   Clear
12:16 PM 1.4 °F -21.4 °F -9.4 °F 61% 30.39 in 5.0 mi ENE 23.0 mph - N/A   Clear
12:36 PM 1.4 °F -21.4 °F -7.6 °F 66% 30.38 in 8.0 mi ENE 23.0 mph - N/A   Clear
12:56 PM 1.4 °F -21.4 °F -9.4 °F 61% 30.38 in 9.0 mi ENE 23.0 mph - N/A   Clear
1:16 PM 1.4 °F -21.4 °F - N/A% 30.37 in 10.0 mi ENE 23.0 mph - N/A   Clear
1:36 PM 1.4 °F -21.0 °F -20.2 °F 36% 30.36 in 10.0 mi ENE 21.9 mph - N/A   Clear
1:56 PM 1.4 °F -21.4 °F -5.8 °F 72% 30.36 in 10.0 mi ENE 23.0 mph - N/A   Clear
2:16 PM 1.4 °F -21.0 °F -7.6 °F 66% 30.35 in 10.0 mi ENE 21.9 mph - N/A   Clear
2:36 PM 1.4 °F -21.0 °F -5.8 °F 72% 30.34 in 10.0 mi ENE 21.9 mph - N/A   Clear
2:56 PM 1.4 °F -20.5 °F -5.8 °F 72% 30.34 in 10.0 mi ENE 20.7 mph - N/A   Clear
3:16 PM 1.4 °F -20.5 °F -5.8 °F 72% 30.33 in 10.0 mi ENE 20.7 mph - N/A   Clear
3:36 PM 1.4 °F -20.5 °F -5.8 °F 72% 30.32 in 10.0 mi ENE 20.7 mph - N/A   Clear
3:56 PM 1.4 °F -21.0 °F -5.8 °F 72% 30.31 in 10.0 mi ENE 21.9 mph - N/A   Clear
4:16 PM 1.4 °F -21.0 °F -5.8 °F 72% 30.30 in 10.0 mi ENE 21.9 mph - N/A   Scattered Clouds
4:36 PM 3.2 °F -19.0 °F -4.0 °F 72% 30.30 in 10.0 mi ENE 23.0 mph - N/A   Overcast
4:56 PM 3.2 °F -18.6 °F -2.2 °F 78% 30.29 in 9.0 mi ENE 21.9 mph 31.1 mph N/A   Overcast
5:16 PM 3.2 °F -18.6 °F -2.2 °F 78% 30.28 in 10.0 mi ENE 21.9 mph - N/A   Overcast
5:36 PM 3.2 °F -19.5 °F -2.2 °F 78% 30.27 in 10.0 mi ENE 24.2 mph 28.8 mph N/A   Overcast
5:56 PM 5.0 °F -16.7 °F -2.2 °F 72% 30.26 in 10.0 mi ENE 23.0 mph - N/A   Overcast
6:16 PM 5.0 °F -17.1 °F -0.4 °F 78% 30.26 in 10.0 mi ENE 24.2 mph - N/A   Overcast
6:36 PM 6.8 °F -14.7 °F -0.4 °F 72% 30.25 in 7.0 mi ENE 24.2 mph 33.4 mph N/A   Overcast
6:56 PM 6.8 °F -15.1 °F -0.4 °F 72% 30.25 in 10.0 mi ENE 25.3 mph 28.8 mph N/A   Overcast
7:16 PM 6.8 °F -15.1 °F -0.4 °F 72% 30.23 in 9.0 mi ENE 25.3 mph - N/A   Overcast
7:36 PM 6.8 °F -15.1 °F -0.4 °F 72% 30.23 in 10.0 mi ENE 25.3 mph - N/A   Overcast
7:56 PM 6.8 °F -14.7 °F -0.4 °F 72% 30.22 in 10.0 mi ENE 24.2 mph - N/A   Overcast
8:16 PM 6.8 °F -15.1 °F -0.4 °F 72% 30.22 in 10.0 mi ENE 25.3 mph - N/A   Overcast
8:36 PM 6.8 °F -15.5 °F -0.4 °F 72% 30.21 in 9.0 mi ENE 26.5 mph 31.1 mph N/A   Overcast
8:56 PM 6.8 °F -15.1 °F -0.4 °F 72% 30.22 in 8.0 mi ENE 25.3 mph 31.1 mph N/A   Overcast
9:16 PM 6.8 °F -15.9 °F -0.4 °F 72% 30.20 in 6.0 mi ENE 27.6 mph 34.5 mph N/A   Overcast
9:36 PM 6.8 °F -16.2 °F -0.4 °F 72% 30.19 in 6.0 mi ENE 28.8 mph - N/A   Overcast
9:56 PM 8.6 °F -13.1 °F -0.4 °F 67% 30.19 in 5.0 mi ENE 26.5 mph 33.4 mph N/A   Overcast
10:16 PM 8.6 °F -13.4 °F 1.4 °F 73% 30.18 in 7.0 mi ENE 27.6 mph 32.2 mph N/A   Overcast
10:36 PM 8.6 °F -12.7 °F -0.4 °F 67% 30.18 in 5.0 mi ENE 25.3 mph 32.2 mph N/A   Overcast
10:56 PM 8.6 °F -12.7 °F -0.4 °F 67% 30.18 in 7.0 mi ENE 25.3 mph 32.2 mph N/A   Overcast
11:16 PM 8.6 °F -13.8 °F 1.4 °F 73% 30.17 in 5.0 mi ENE 28.8 mph 33.4 mph N/A   Overcast
11:36 PM 8.6 °F -13.4 °F 1.4 °F 73% 30.16 in 5.0 mi ENE 27.6 mph 34.5 mph N/A   Overcast
11:56 PM 8.6 °F -13.8 °F 1.4 °F 73% 30.15 in 4.0 mi ENE 28.8 mph 33.4 mph N/A   Overcast